Flight Track Log - Related Links

Times and Time Zones

All times are in EDT time to prevent confusion due to time zone crossing. See the EGF2961 flight status page for this flight to view local times or setup timezone preferences in your user account.

Time Position Orientation Groundspeed Altitude Reporting Facility
EDT Latitude Longitude Course Direction KTS MPH feet Rate Location/Type
Thu 06:48:06 AM 42.8464 -85.5175 227° Southwest 141 162 2,800  Level Chicago Center
Thu 06:49:07 AM 42.8106 -85.5719 228° Southwest 190 219 4,300 1,934 Climbing Chicago Center
Thu 06:50:07 AM 42.7678 -85.6400 229° Southwest 225 259 6,700 2,579 Climbing Chicago Center
Thu 06:51:08 AM 42.7217 -85.7100 228° Southwest 241 277 9,500 2,281 Climbing Chicago Center
Thu 06:52:08 AM 42.6764 -85.7808 229° Southwest 243 280 11,300 1,289 Climbing Chicago Center
Thu 06:53:00 AM 42.5200 -86.0144 227° Southwest  Level FlightAware Approximate
Thu 06:53:09 AM 42.6225 -85.8636 229° Southwest 284 327 12,100  Level Chicago Center
Thu 06:54:09 AM 42.5650 -85.9539 229° Southwest 311 358 14,400 2,628 Climbing Chicago Center
Thu 06:55:10 AM 42.5125 -86.0325 228° Southwest 287 330 17,400 2,213 Climbing Chicago Center
Thu 06:56:11 AM 42.4669 -86.1022 228° Southwest 256 295 18,900 1,289 Climbing Chicago Center
Thu 06:57:11 AM 42.4111 -86.1764 224° Southwest 272 313 20,000 1,190 Climbing Chicago Center
Thu 06:58:12 AM 42.3500 -86.2572 224° Southwest 297 342 21,300 1,339 Climbing Chicago Center
Thu 06:59:12 AM 42.2836 -86.3422 223° Southwest 304 350 22,700 1,190 Climbing Chicago Center
Thu 07:00:13 AM 42.2186 -86.4283 224° Southwest 320 368 23,700 942 Climbing Chicago Center
Thu 07:01:13 AM 42.1525 -86.5136 224° Southwest 327 376 24,600 942 Climbing Chicago Center
Thu 07:02:14 AM 42.0844 -86.6031 224° Southwest 338 389 25,600 956 Climbing Chicago Center
Thu 07:04:15 AM 41.9411 -86.7856 223° Southwest 340 391 27,500 956 Climbing Chicago Center
Thu 07:05:16 AM 41.8725 -86.8744 224° Southwest 342 394 28,500 934 Climbing Chicago Center
Thu 07:06:17 AM 41.8036 -86.9625 224° Southwest 342 394 29,400 942 Climbing Chicago Center
Thu 07:07:17 AM 41.7339 -87.0483 223° Southwest 341 392 30,400 942 Climbing Chicago Center
Thu 07:08:18 AM 41.6644 -87.1381 224° Southwest 343 395 31,300 934 Climbing Chicago Center
Thu 07:09:19 AM 41.5942 -87.2272 224° Southwest 344 396 32,300 934 Climbing Chicago Center
Thu 07:10:20 AM 41.5228 -87.3161 223° Southwest 349 402 33,200 885 Climbing Chicago Center
Thu 07:11:21 AM 41.4514 -87.4072 224° Southwest 351 404 34,100 942 Climbing Chicago Center
Thu 07:12:21 AM 41.3811 -87.4967 224° Southwest 351 404 35,100 942 Climbing Chicago Center
Thu 07:13:22 AM 41.3092 -87.5847 223° Southwest 350 403 36,000 439 Climbing Chicago Center
Thu 07:14:24 AM 41.2375 -87.6753 224° Southwest 350 403 36,000  Level Chicago Center
Thu 07:15:25 AM 41.1628 -87.7672 223° Southwest 358 412 36,000  Level Chicago Center
Thu 07:16:26 AM 41.0731 -87.8800 223° Southwest 362 417 36,000  Level Chicago Center
Thu 07:17:27 AM 40.9964 -87.9733 223° Southwest 368 423 36,000  Level Chicago Center
Thu 07:18:28 AM 40.9194 -88.0669 223° Southwest 370 426 36,000  Level Chicago Center
Thu 07:19:29 AM 40.8422 -88.1608 223° Southwest 372 428 36,000  Level Chicago Center
Thu 07:20:31 AM 40.7653 -88.2547 223° Southwest 374 430 36,000  Level Chicago Center
Thu 07:21:32 AM 40.6889 -88.3494 223° Southwest 374 430 36,000  Level Chicago Center
Thu 07:22:33 AM 40.6117 -88.4411 222° Southwest 374 430 36,000  Level Chicago Center
Thu 07:23:34 AM 40.5358 -88.5344 223° Southwest 374 430 36,000  Level Chicago Center
Thu 07:24:36 AM 40.4594 -88.6269 223° Southwest 374 430 36,000  Level Chicago Center
Thu 07:25:37 AM 40.3803 -88.7194 222° Southwest 375 432 36,000  Level Chicago Center
Thu 07:26:38 AM 40.3039 -88.8108 222° Southwest 375 432 36,000  Level Chicago Center
Thu 07:27:40 AM 40.2256 -88.9036 222° Southwest 375 432 36,000  Level Chicago Center
Thu 07:28:41 AM 40.1469 -88.9961 222° Southwest 375 432 36,000  Level Chicago Center
Thu 07:29:38 AM 40.0661 -89.0922 222° Southwest 379 436 36,000  Level Kansas City Center
Thu 07:30:39 AM 39.9878 -89.1853 222° Southwest 380 437 36,000  Level Kansas City Center
Thu 07:31:40 AM 39.9078 -89.2781 222° Southwest 381 438 36,000  Level Kansas City Center
Thu 07:32:40 AM 39.8292 -89.3706 222° Southwest 381 438 36,000  Level Kansas City Center
Thu 07:33:41 AM 39.7500 -89.4650 223° Southwest 381 438 36,000  Level Kansas City Center
Thu 07:34:42 AM 39.6689 -89.5586 222° Southwest 381 438 36,000  Level Kansas City Center
Thu 07:35:43 AM 39.5892 -89.6514 222° Southwest 382 440 36,000  Level Kansas City Center
Thu 07:36:44 AM 39.5108 -89.7408 221° Southwest 381 438 36,000  Level Kansas City Center
Thu 07:37:45 AM 39.4322 -89.8322 222° Southwest 381 438 36,000  Level Kansas City Center
Thu 07:38:46 AM 39.3375 -89.9403 221° Southwest 381 438 36,000  Level Kansas City Center
Thu 07:39:46 AM 39.2594 -90.0297 222° Southwest 380 437 36,000  Level Kansas City Center
Thu 07:40:47 AM 39.1814 -90.1194 222° Southwest 380 437 36,000  Level Kansas City Center
Thu 07:41:48 AM 39.1033 -90.2092 222° Southwest 380 437 36,000  Level Kansas City Center
Thu 07:42:49 AM 39.0236 -90.2983 221° Southwest 379 436 36,000  Level Kansas City Center
Thu 07:43:50 AM 38.9394 -90.3936 221° Southwest 377 434 36,000  Level Kansas City Center
Thu 07:44:51 AM 38.8608 -90.4828 221° Southwest 377 434 36,000  Level Kansas City Center
Thu 07:45:52 AM 38.7933 -90.5825 229° Southwest 375 432 36,000  Level Kansas City Center
Thu 07:46:53 AM 38.7219 -90.6872 229° Southwest 373 429 36,000  Level Kansas City Center
Thu 07:47:54 AM 38.6528 -90.7869 228° Southwest 373 429 36,000  Level Kansas City Center
Thu 07:48:55 AM 38.5853 -90.8850 229° Southwest 373 429 36,000  Level Kansas City Center
Thu 07:49:56 AM 38.5181 -90.9828 229° Southwest 372 428 36,000  Level Kansas City Center
Thu 07:50:57 AM 38.4500 -91.0817 229° Southwest 372 428 36,000  Level Kansas City Center
Thu 07:51:58 AM 38.3828 -91.1803 229° Southwest 372 428 36,000  Level Kansas City Center
Thu 07:52:59 AM 38.3131 -91.2781 228° Southwest 373 429 36,000  Level Kansas City Center
Thu 07:54:00 AM 38.2444 -91.3772 229° Southwest 373 429 36,000  Level Kansas City Center
Thu 07:55:01 AM 38.1711 -91.4825 228° Southwest 374 430 36,000  Level Kansas City Center
Thu 07:56:02 AM 38.1011 -91.5806 228° Southwest 373 429 36,000  Level Kansas City Center
Thu 07:57:03 AM 38.0319 -91.6794 228° Southwest 373 429 36,000  Level Kansas City Center
Thu 07:58:04 AM 37.9628 -91.7783 228° Southwest 373 429 36,000  Level Kansas City Center
Thu 07:59:05 AM 37.8922 -91.8778 228° Southwest 374 430 36,000  Level Kansas City Center
Thu 08:00:06 AM 37.8231 -91.9756 228° Southwest 373 429 36,000  Level Kansas City Center
Thu 08:01:07 AM 37.7533 -92.0750 228° Southwest 373 429 36,000  Level Kansas City Center
Thu 08:02:08 AM 37.6783 -92.1778 227° Southwest 373 429 36,000  Level Kansas City Center
Thu 08:03:09 AM 37.6122 -92.2714 228° Southwest 373 429 36,000  Level Kansas City Center
Thu 08:04:10 AM 37.5428 -92.3692 228° Southwest 372 428 36,000  Level Kansas City Center
Thu 08:05:11 AM 37.4731 -92.4669 228° Southwest 371 427 36,000  Level Kansas City Center
Thu 08:06:12 AM 37.4042 -92.5611 227° Southwest 369 425 36,000  Level Kansas City Center
Thu 08:07:14 AM 37.3331 -92.6569 227° Southwest 369 425 36,000  Level Kansas City Center
Thu 08:08:15 AM 37.2633 -92.7536 228° Southwest 370 426 36,000  Level Kansas City Center
Thu 08:09:16 AM 37.1792 -92.8675 227° Southwest 370 426 36,000  Level Kansas City Center
Thu 08:10:17 AM 37.1067 -92.9594 225° Southwest 370 426 36,000  Level Kansas City Center
Thu 08:11:18 AM 37.0136 -93.0264 210° Southwest 383 441 36,000  Level Kansas City Center
Thu 08:12:20 AM 36.9242 -93.0961 212° Southwest 378 435 36,000  Level Kansas City Center
Thu 08:13:21 AM 36.8456 -93.1567 212° Southwest 379 436 36,000  Level Kansas City Center
Thu 08:14:22 AM 36.7569 -93.2272 213° Southwest 378 435 36,000  Level Kansas City Center
Thu 08:15:23 AM 36.6492 -93.3100 212° Southwest 379 436 36,000  Level Kansas City Center
Thu 08:16:24 AM 36.5586 -93.3800 212° Southwest 380 437 36,000  Level Kansas City Center
Thu 08:17:26 AM 36.4686 -93.4506 212° Southwest 381 438 36,000  Level Kansas City Center
Thu 08:18:27 AM 36.3661 -93.4992 201° Southwest 393 452 36,000  Level Kansas City Center
Thu 08:19:35 AM 36.2286 -93.4886 176° South 409 471 36,000  Level Memphis Center
Thu 08:20:37 AM 36.1150 -93.4783 176° South 410 472 36,000  Level Memphis Center
Thu 08:21:38 AM 36.0003 -93.4703 177° South 411 473 36,000  Level Memphis Center
Thu 08:22:40 AM 35.8867 -93.4614 176° South 411 473 36,000  Level Memphis Center
Thu 08:23:41 AM 35.7717 -93.4533 177° South 411 473 36,000  Level Memphis Center
Thu 08:24:43 AM 35.6575 -93.4458 177° South 412 474 36,000  Level Memphis Center
Thu 08:25:45 AM 35.5372 -93.5039 201° Southwest 406 467 36,000  Level Memphis Center
Thu 08:26:46 AM 35.4778 -93.6108 236° Southwest 390 449 36,000  Level Memphis Center
Thu 08:27:48 AM 35.4278 -93.7258 242° Southwest 389 448 36,000  Level Memphis Center
Thu 08:28:49 AM 35.3789 -93.8419 243° Southwest 389 448 36,000  Level Memphis Center
Thu 08:29:51 AM 35.3261 -93.9647 242° Southwest 389 448 36,000  Level Memphis Center
Thu 08:30:53 AM 35.2750 -94.0839 242° Southwest 390 449 36,000  Level Memphis Center
Thu 08:31:55 AM 35.2233 -94.2006 242° Southwest 390 449 36,000  Level Memphis Center
Thu 08:32:56 AM 35.1647 -94.3372 242° Southwest 392 451 36,000  Level Memphis Center
Thu 08:33:58 AM 35.1119 -94.4556 241° Southwest 394 453 36,000  Level Memphis Center
Thu 08:35:00 AM 35.0600 -94.5733 242° Southwest 394 453 36,000  Level Memphis Center
Thu 08:36:01 AM 34.9967 -94.6950 238° Southwest 396 456 36,000  Level Memphis Center
Thu 08:37:03 AM 34.9142 -94.7864 222° Southwest 399 459 36,000  Level Memphis Center
Thu 08:38:05 AM 34.8311 -94.8753 221° Southwest 399 459 36,000  Level Memphis Center
Thu 08:39:07 AM 34.7472 -94.9650 221° Southwest 399 459 36,000 -145 Level Memphis Center
Thu 08:40:09 AM 34.6511 -95.0283 208° Southwest 399 459 35,700 -683 Descending Memphis Center
Thu 08:41:10 AM 34.5269 -95.0164 175° South 409 471 34,600 -1,087 Descending Memphis Center
Thu 08:42:27 AM 34.3836 -94.9842 169° South 407 468 33,200 -993 Descending Fort Worth Center
Thu 08:43:29 AM 34.2842 -94.9714 174° South 404 465 32,300 -774 Descending Fort Worth Center
Thu 08:44:31 AM 34.1853 -95.0236 204° Southwest 402 463 31,600 -1,024 Descending Fort Worth Center
Thu 08:45:32 AM 34.1108 -95.1569 236° Southwest 402 463 30,200 -1,415 Descending Fort Worth Center
Thu 08:46:34 AM 34.0500 -95.2708 237° Southwest 404 465 28,700 -1,452 Descending Fort Worth Center
Thu 08:47:36 AM 33.9922 -95.3847 239° Southwest 403 464 27,200 -1,355 Descending Fort Worth Center
Thu 08:48:38 AM 33.9325 -95.4978 238° Southwest 402 463 25,900 -1,452 Descending Fort Worth Center
Thu 08:49:40 AM 33.8658 -95.6222 237° Southwest 408 470 24,200 -1,887 Descending Fort Worth Center
Thu 08:50:42 AM 33.8108 -95.7247 237° Southwest 373 429 22,000 -2,129 Descending Fort Worth Center
Thu 08:51:44 AM 33.7572 -95.8272 238° Southwest 361 415 19,800 -2,244 Descending Fort Worth Center
Thu 08:52:45 AM 33.6864 -95.9456 234° Southwest 373 429 17,400 -2,244 Descending Fort Worth Center
Thu 08:53:47 AM 33.6258 -96.0411 233° Southwest 364 419 15,200 -1,887 Descending Fort Worth Center
Thu 08:54:49 AM 33.5644 -96.1375 233° Southwest 340 391 13,500 -1,645 Descending Fort Worth Center
Thu 08:55:51 AM 33.5106 -96.2239 233° Southwest 327 376 11,800 -1,210 Descending Fort Worth Center
Thu 08:56:53 AM 33.4539 -96.3117 232° Southwest 313 360 11,000 -387 Descending Fort Worth Center
Thu 08:57:55 AM 33.4058 -96.3886 233° Southwest 291 335 11,000 -968 Level Fort Worth Center
Thu 08:58:57 AM 33.3475 -96.4603 226° Southwest 282 325 9,000 -1,920 Descending Fort Worth Center
Thu 09:00:00 AM 33.2944 -96.5233 225° Southwest 275 316 7,000 -1,920 Descending Fort Worth Center
Thu 09:01:02 AM 33.2822 -96.6194 261° West 278 320 5,000 -968 Descending Fort Worth Center
Thu 09:02:04 AM 33.2806 -96.7075 269° West 269 310 5,000 48 Level Fort Worth Center
Thu 09:03:06 AM 33.2778 -96.7989 268° West 261 300 5,100 48 Climbing Fort Worth Center
Thu 09:04:08 AM 33.2581 -96.8800 254° West 266 306 5,100 -532 Level Fort Worth Center
Thu 09:05:10 AM 33.2217 -96.9531 239° Southwest 260 299 4,000 -968 Descending Fort Worth Center
Thu 09:06:12 AM 33.1628 -96.9858 205° Southwest 222 255 3,100 -435 Descending Fort Worth Center
Thu 09:07:14 AM 33.1050 -97.0050 196° South 215 247 3,100  Level Fort Worth Center
Thu 09:08:16 AM 33.0378 -97.0097 183° South 223 257 3,100 -484 Level Fort Worth Center
Thu 09:09:18 AM 32.9769 -97.0100 180° South 220 253 2,100 -871 Descending Fort Worth Center
Thu 09:10:20 AM 32.9314 -97.0108 181° South 147 169 1,300 -726 Descending Fort Worth Center
Thu 09:11:22 AM 32.9014 -97.0100 179° South 131 151 600 -677 Descending Fort Worth Center
Thu 09:13:00 AM 32.8833 -97.0333 191° South  Level FlightAware Approximate
Thu 09:20:00 AM 32.8968 -97.0380 344° North  Level Estimated

Login

Don't have an account? Register now (free) for customized features, flight alerts, and more!